+ View the NASA Portal
+ Center for Near-Earth Object Studies
IMPORTANT:
The SSD Announcement email list is now available. Major changes are coming in the near future, including possible hostname and/or URL changes. To be notified of such changes, subscribe to this email list.
Please visit
this page
for more details.
Don't show this message again
JPL Small-Body Database Browser
Search:
[
help
]
214898 (2007 TD58)
Classification:
Main-belt Asteroid
SPK-ID:
2214898
[
Ephemeris
|
Orbit Diagram
|
Orbital Elements
|
Mission Design
|
Physical Parameters
|
Discovery Circumstances
|
Close-Approach Data
]
[ show orbit diagram ]
Orbital Elements at Epoch 2458600.5 (2019-Apr-27.0) TDB
Reference:
JPL 12
(heliocentric ecliptic J2000)
Element
Value
Uncertainty (1-sigma)
Units
e
.1262660747335682
6.9997e-08
a
2.4112390417952
1.5763e-08
au
q
2.10678135274339
1.6817e-07
au
i
1.360836956378536
4.9546e-06
deg
node
24.60364504299431
0.00026857
deg
peri
88.36947035280676
0.00027019
deg
M
325.8915409205818
2.6941e-05
deg
t
p
2458730.074167198668
(2019-Sep-03.57416720)
0.00010256
TDB
period
1367.599166028233
3.74
1.3411e-05
3.672e-08
d
yr
n
.2632350245178259
2.5813e-09
deg/d
Q
2.71569673084701
1.7754e-08
au
Orbit Determination Parameters
# obs. used (total)
224
data-arc span
6495 days (17.78 yr)
first obs. used
2001-01-21
last obs. used
2018-11-03
planetary ephem.
DE431
SB-pert. ephem.
SB431-N16
condition code
0
norm. resid. RMS
.55391
source
ORB
producer
Otto Matic
solution date
2019-Jul-14 09:53:00
Additional Information
Earth MOID
= 1.1241 au
Jupiter MOID
= 2.37229 au
T_jup
= 3.508
[ show covariance matrix ]
[
Ephemeris
|
Orbit Diagram
|
Orbital Elements
|
Mission Design
|
Physical Parameters
|
Discovery Circumstances
|
Close-Approach Data
]
Physical Parameter Table
Parameter
Symbol
Value
Units
Sigma
Reference
Notes
absolute magnitude
H
17.4
n/a
MPO454543
214898 (2007 TD58)
Discovered 2007-Oct-04 by Spacewatch at Kitt Peak
Reference:
20090509/Numbers.arc
Last Updated:
2009-05-11
[ show close-approach data ]
Alternate Designations
2007 TD58
= 2003 UC337 = 2007 TE315
[
Ephemeris
|
Orbit Diagram
|
Orbital Elements
|
Mission Design
|
Physical Parameters
|
Discovery Circumstances
|
Close-Approach Data
]
2019-Dec-16 13:26 UT
(server date/time)
Site Manager:
Ryan S. Park
Webmaster
:
Alan B. Chamberlin